| time (UTC) | temp F | wind direction | speed knots | gust knots | rain 1hr in | rain 24hr in | rain mn in | humidity % | barometer mb |
| 20260507033935 | 0 | 293 | 0.9 | 3.5 | 0.00 | 0.00 | 0.00 | 1006.0 | |
| 20260507032755 | 0 | 270 | 2.6 | 2.6 | 0.00 | 0.00 | 0.00 | 1006.0 | |
| 20260507031616 | 0 | 270 | 1.7 | 1.7 | 0.00 | 0.00 | 0.00 | 1006.1 | |
| 20260507030435 | 0 | 338 | 0.0 | 2.6 | 0.00 | 0.00 | 0.00 | 1006.0 | |
| 20260507025254 | 0 | 293 | 0.9 | 1.7 | 0.00 | 0.00 | 0.00 | 1005.9 | |
| 20260507024114 | 0 | 270 | 0.9 | 1.7 | 0.00 | 0.00 | 0.00 | 1005.8 | |
| 20260507022935 | 0 | 293 | 0.9 | 2.6 | 0.00 | 0.00 | 0.00 | 1005.6 | |
| 20260507021752 | 0 | 0 | 0.9 | 2.6 | 0.00 | 0.00 | 0.00 | 1005.7 | |
| 20260507020613 | 0 | 338 | 2.6 | 2.6 | 0.00 | 0.00 | 0.00 | 1005.7 | |
| 20260507015434 | 0 | 315 | 0.9 | 3.5 | 0.00 | 0.00 | 0.00 | 1005.5 | |
| 20260507014253 | 0 | 270 | 1.7 | 2.6 | 0.00 | 0.00 | 0.00 | 1005.1 | |
| 20260507013113 | 0 | 293 | 1.7 | 2.6 | 0.00 | 0.00 | 0.00 | 1005.0 | |
| 20260507011933 | 0 | 293 | 0.9 | 3.5 | 0.00 | 0.00 | 0.00 | 1005.2 | |
| 20260507010752 | 0 | 315 | 2.6 | 6.1 | 0.00 | 0.00 | 0.00 | 1005.2 | |
| 20260507005612 | 0 | 293 | 3.5 | 7.8 | 0.00 | 0.00 | 0.00 | 1005.0 | |
| 20260507004432 | 0 | 338 | 4.3 | 7.0 | 0.00 | 0.00 | 0.00 | 1004.9 | |
| 20260507003251 | 0 | 315 | 3.5 | 5.2 | 0.00 | 0.00 | 0.00 | 1004.9 | |
| 20260507002109 | 0 | 270 | 3.5 | 5.2 | 0.00 | 0.00 | 0.00 | 1004.8 | |
| 20260507000928 | 0 | 270 | 1.7 | 5.2 | 0.00 | 0.00 | 0.00 | 1004.6 | |
| 20260506235746 | 0 | 0 | 4.3 | 6.1 | 0.00 | 0.00 | 0.00 | 1004.4 | |
| 20260506234605 | 0 | 338 | 4.3 | 7.0 | 0.00 | 0.00 | 0.00 | 1004.0 | |
| 20260506233424 | 0 | 293 | 1.7 | 10.4 | 0.00 | 0.00 | 0.00 | 1003.6 | |
| 20260506232244 | 0 | 270 | 6.1 | 10.4 | 0.00 | 0.00 | 0.00 | 1003.4 | |
| 20260506231103 | 0 | 0 | 6.1 | 12.2 | 0.00 | 0.00 | 0.00 | 1003.3 | |
| 20260506225920 | 0 | 293 | 6.1 | 9.6 | 0.00 | 0.00 | 0.00 | 1003.4 | |
| 20260506224740 | 0 | 270 | 7.8 | 11.3 | 0.00 | 0.00 | 0.00 | 1003.4 | |
| 20260506223559 | 0 | 0 | 7.8 | 16.5 | 0.00 | 0.00 | 0.00 | 1003.1 | |
| 20260506222420 | 0 | 293 | 17.4 | 21.7 | 0.00 | 0.00 | 0.00 | 1003.0 | |
| 20260506221240 | 0 | 293 | 8.7 | 13.0 | 0.00 | 0.00 | 0.00 | 1002.9 | |
| 20260506220059 | 0 | 0 | 7.8 | 13.0 | 0.00 | 0.00 | 0.00 | 1002.9 | |
| 20260506214917 | 0 | 0 | 7.0 | 12.2 | 0.00 | 0.00 | 0.00 | 1002.6 | |
| 20260506213736 | 0 | 338 | 2.6 | 6.1 | 0.00 | 0.00 | 0.00 | 1001.6 | |
| 20260506212556 | 0 | 338 | 3.5 | 7.8 | 0.00 | 0.00 | 0.00 | 1001.3 | |
| 20260506211416 | 0 | 135 | 7.0 | 7.0 | 0.00 | 0.00 | 0.00 | 1001.1 | |
| 20260506210236 | 0 | 135 | 6.1 | 7.8 | 0.00 | 0.00 | 0.00 | 1000.8 | |
| 20260506205056 | 0 | 135 | 4.3 | 5.2 | 0.00 | 0.00 | 0.00 | 1000.9 | |
| 20260506203915 | 0 | 135 | 4.3 | 5.2 | 0.00 | 0.00 | 0.00 | 1000.9 | |
| 20260506202735 | 0 | 135 | 2.6 | 4.3 | 0.00 | 0.00 | 0.00 | 1000.9 | |
| 20260506201552 | 0 | 135 | 0.9 | 5.2 | 0.00 | 0.00 | 0.00 | 1001.0 | |
| 20260506200410 | 0 | 315 | 3.5 | 6.1 | 0.00 | 0.00 | 0.00 | 1001.1 | |
| 20260506195231 | 0 | 315 | 5.2 | 7.8 | 0.00 | 0.00 | 0.00 | 1001.2 | |
| 20260506194051 | 0 | 270 | 5.2 | 9.6 | 0.00 | 0.00 | 0.00 | 1001.1 | |
| 20260506192910 | 0 | 270 | 6.1 | 7.8 | 0.00 | 0.00 | 0.00 | 1000.9 | |
| 20260506191727 | 0 | 135 | 3.5 | 6.1 | 0.00 | 0.00 | 0.00 | 1000.5 | |
| 20260506190547 | 0 | 68 | 3.5 | 7.8 | 0.00 | 0.00 | 0.00 | 1000.2 | |
| 20260506185407 | 0 | 180 | 3.5 | 10.4 | 0.00 | 0.00 | 0.00 | 1000.0 | |
| 20260506184227 | 0 | 135 | 2.6 | 8.7 | 0.00 | 0.00 | 0.00 | 999.9 | |
| 20260506183050 | 0 | 158 | 5.2 | 7.0 | 0.00 | 0.00 | 0.00 | 999.8 | |
| 20260506181913 | 0 | 180 | 3.5 | 10.4 | 0.00 | 0.00 | 0.00 | 999.6 | |
| 20260506180734 | 0 | 180 | 3.5 | 11.3 | 0.00 | 0.00 | 0.00 | 999.5 | |
| 20260506175556 | 0 | 68 | 6.1 | 11.3 | 0.00 | 0.00 | 0.00 | 999.4 | |
| 20260506174419 | 0 | 180 | 9.6 | 13.0 | 0.00 | 0.00 | 0.00 | 999.3 | |
| 20260506173242 | 0 | 225 | 6.1 | 13.9 | 0.00 | 0.00 | 0.00 | 999.3 | |
| 20260506172102 | 0 | 180 | 7.0 | 16.5 | 0.00 | 0.00 | 0.00 | 999.2 | |
| 20260506170924 | 0 | 248 | 12.2 | 14.8 | 0.00 | 0.00 | 0.00 | 999.1 | |
| 20260506165746 | 0 | 180 | 12.2 | 18.2 | 0.00 | 0.00 | 0.00 | 998.5 | |
| 20260506164607 | 0 | 270 | 7.0 | 17.4 | 0.00 | 0.00 | 0.00 | 998.8 | |
| 20260506163429 | 0 | 158 | 10.4 | 19.1 | 0.00 | 0.00 | 0.00 | 998.7 | |
| 20260506162252 | 0 | 180 | 11.3 | 19.1 | 0.00 | 0.00 | 0.00 | 999.1 | |
| 20260506161113 | 0 | 135 | 11.3 | 20.9 | 0.00 | 0.00 | 0.00 | 999.2 | |
| 20260506155934 | 0 | 338 | 5.2 | 13.9 | 0.00 | 0.00 | 0.00 | 999.2 | |
| 20260506154757 | 0 | 180 | 9.6 | 20.0 | 0.00 | 0.00 | 0.00 | 999.3 | |
| 20260506153619 | 0 | 225 | 7.8 | 19.1 | 0.00 | 0.00 | 0.00 | 999.5 | |
| 20260506152441 | 0 | 248 | 8.7 | 20.0 | 0.00 | 0.00 | 0.00 | 999.8 | |
| 20260506151303 | 0 | 315 | 8.7 | 20.9 | 0.00 | 0.00 | 0.00 | 999.9 | |
| 20260506150123 | 0 | 338 | 12.2 | 16.5 | 0.00 | 0.00 | 0.00 | 1000.0 | |
| 20260506144944 | 0 | 225 | 10.4 | 16.5 | 0.00 | 0.00 | 0.00 | 1000.1 | |
| 20260506143806 | 0 | 338 | 10.4 | 18.2 | 0.00 | 0.00 | 0.00 | 1000.2 | |
| 20260506142625 | 0 | 225 | 11.3 | 15.6 | 0.00 | 0.00 | 0.00 | 1000.6 | |
| 20260506141449 | 0 | 315 | 5.2 | 16.5 | 0.00 | 0.00 | 0.00 | 1000.7 | |
| 20260506140307 | 0 | 180 | 7.0 | 19.1 | 0.00 | 0.00 | 0.00 | 1000.8 | |
| 20260506135127 | 0 | 180 | 11.3 | 15.6 | 0.00 | 0.00 | 0.00 | 1000.7 | |
| 20260506133953 | 0 | 248 | 14.8 | 19.1 | 0.00 | 0.00 | 0.00 | 1000.7 | |
| 20260506132810 | 0 | 315 | 16.5 | 18.2 | 0.00 | 0.00 | 0.00 | 1000.8 | |
| 20260506131630 | 0 | 248 | 7.0 | 15.6 | 0.00 | 0.00 | 0.00 | 1001.0 | |
| 20260506130452 | 0 | 248 | 5.2 | 11.3 | 0.00 | 0.00 | 0.00 | 1001.4 | |
| 20260506125313 | 0 | 338 | 7.8 | 13.9 | 0.00 | 0.00 | 0.00 | 1001.6 | |
| 20260506124134 | 0 | 225 | 4.3 | 8.7 | 0.00 | 0.00 | 0.00 | 1001.8 | |
| 20260506122954 | 0 | 180 | 2.6 | 12.2 | 0.00 | 0.00 | 0.00 | 1001.9 | |
| 20260506121815 | 0 | 180 | 6.1 | 13.9 | 0.00 | 0.00 | 0.00 | 1001.8 | |
| 20260506120637 | 0 | 180 | 5.2 | 9.6 | 0.00 | 0.00 | 0.00 | 1001.8 | |
| 20260506115458 | 0 | 225 | 4.3 | 12.2 | 0.00 | 0.00 | 0.00 | 1001.8 | |
| 20260506114329 | 0 | 315 | 1.7 | 7.0 | 0.00 | 0.00 | 0.00 | 1001.9 | |
| 20260506113142 | 0 | 225 | 4.3 | 9.6 | 0.00 | 0.00 | 0.00 | 1002.0 | |
| 20260506112004 | 0 | 225 | 7.0 | 11.3 | 0.00 | 0.00 | 0.00 | 1002.1 | |
| 20260506110826 | 0 | 180 | 9.6 | 12.2 | 0.00 | 0.00 | 0.00 | 1002.4 | |
| 20260506105646 | 0 | 338 | 2.6 | 10.4 | 0.00 | 0.00 | 0.00 | 1002.4 | |
| 20260506104508 | 0 | 338 | 6.1 | 13.9 | 0.00 | 0.00 | 0.00 | 1002.3 | |
| 20260506103330 | 0 | 225 | 7.8 | 11.3 | 0.00 | 0.00 | 0.00 | 1002.7 | |
| 20260506102152 | 0 | 338 | 5.2 | 10.4 | 0.00 | 0.00 | 0.00 | 1002.7 | |
| 20260506101014 | 0 | 338 | 4.3 | 13.0 | 0.00 | 0.00 | 0.00 | 1002.8 | |
| 20260506095830 | 0 | 225 | 4.3 | 10.4 | 0.00 | 0.00 | 0.00 | 1002.9 | |
| 20260506094651 | 0 | 180 | 3.5 | 9.6 | 0.00 | 0.00 | 0.00 | 1003.0 | |
| 20260506093513 | 0 | 180 | 7.0 | 12.2 | 0.00 | 0.00 | 0.00 | 1002.7 | |
| 20260506092332 | 0 | 248 | 7.0 | 9.6 | 0.00 | 0.00 | 0.00 | 1002.7 | |
| 20260506091153 | 0 | 225 | 4.3 | 9.6 | 0.00 | 0.00 | 0.00 | 1002.9 | |
| 20260506090015 | 0 | 225 | 7.0 | 7.0 | 0.00 | 0.00 | 0.00 | 1003.1 | |
| 20260506084837 | 0 | 225 | 4.3 | 10.4 | 0.00 | 0.00 | 0.00 | 1003.1 | |
| 20260506083659 | 0 | 315 | 3.5 | 8.7 | 0.00 | 0.00 | 0.00 | 1003.5 | |
| 20260506082519 | 0 | 338 | 2.6 | 8.7 | 0.00 | 0.00 | 0.00 | 1003.6 | |
| 20260506081341 | 0 | 225 | 2.6 | 6.1 | 0.00 | 0.00 | 0.00 | 1003.6 | |
| 20260506080201 | 0 | 338 | 4.3 | 8.7 | 0.00 | 0.00 | 0.00 | 1003.6 | |
| 20260506072706 | 0 | 293 | 6.1 | 7.8 | 0.00 | 0.00 | 0.00 | 1004.1 | |
| 20260506071527 | 0 | 338 | 6.1 | 9.6 | 0.00 | 0.00 | 0.00 | 1004.0 | |
| 20260506070347 | 0 | 315 | 2.6 | 8.7 | 0.00 | 0.00 | 0.00 | 1004.3 | |
| 20260506061655 | 0 | 293 | 6.1 | 9.6 | 0.00 | 0.00 | 0.00 | 1004.2 | |
| 20260506060514 | 0 | 270 | 3.5 | 7.8 | 0.00 | 0.00 | 0.00 | 1004.4 | |
| 20260506050639 | 0 | 225 | 0.9 | 5.2 | 0.00 | 0.00 | 0.00 | 1004.4 | |
| 20260506044315 | 0 | 315 | 0.9 | 1.7 | 0.00 | 0.00 | 0.00 | 1004.4 | |
| 20260506043133 | 0 | 248 | 0.9 | 1.7 | 0.00 | 0.00 | 0.00 | 1004.4 | |
| 20260506041950 | 0 | 293 | 0.0 | 0.9 | 0.00 | 0.00 | 0.00 | 1004.3 | |
| 20260506040808 | 0 | 270 | 0.0 | 1.7 | 0.00 | 0.00 | 0.00 | 1004.3 | |
| 20260506035626 | 0 | 270 | 1.7 | 1.7 | 0.00 | 0.00 | 0.00 | 1004.0 |